カタログに戻る

ARIANE 44L DEB

運用中HEO
NORAD 28576·DEBRIS·🇫🇷 France

打ち上げ Oct 29, 1991 から Guiana Space Centre

Loading…

次のパス (今後24時間)

TLE

最新Source: Space-Track

元期: Sep 14, 2026, 22:08 UTC

1 28576U 91075N   26257.92260742 -.00000319  00000-0 -69466-2 0  9992
2 28576   6.7782 293.2453 6596996 186.0138 107.5508  2.83940068256127

AllMySatでARIANE 44L DEBをリアルタイム追跡

Download on the App Store